Overview Statistics Trail Chart Weather Telemetry Raw packets
 

This is the latest recevied weather packets stored in our database for station/object IW2NIA-3. If no packets are shown the sender has not sent any weather packets the latest 10 day(s).

<< 24 25 26 27 28 29 30 >>
Time Temp. Humidity Pressure Rain* Wind** Luminosity Snow
1788082415 25° C 69% 1016 hPa 0 mm - - -
1788081509 24.44° C 71% 1016.1 hPa 0 mm - - -
1788080621 24.44° C 72% 1016.2 hPa 0 mm - - -
1788079717 23.89° C 71% 1016.2 hPa 0 mm - - -
1788078812 23.89° C 72% 1016.1 hPa 0 mm - - -
1788077924 23.33° C 71% 1016.2 hPa 0 mm - - -
1788077023 23.33° C 71% 1016.1 hPa 0 mm - - -
1788076128 23.33° C 71% 1016.1 hPa 0 mm - - -
1788075222 23.33° C 71% 1016 hPa 0 mm - - -
1788074313 22.78° C 72% 1015.9 hPa 0 mm - - -
1788073411 22.22° C 76% 1015.8 hPa 0 mm - - -
1788072522 22.22° C 79% 1015.7 hPa 0 mm - - -
1788071628 21.67° C 80% 1015.7 hPa 0 mm - - -
1788070708 20.56° C 81% 1015.7 hPa 0 mm - - -
1788069816 20° C 83% 1015.6 hPa 0 mm - - -
1788068908 19.44° C 85% 1015.5 hPa 0 mm - - -
1788068018 18.33° C 87% 1015.4 hPa 0 mm - - -
1788067118 18.33° C 87% 1015.1 hPa 0 mm - - -
1788066213 17.78° C 87% 1015 hPa 0 mm - - -
1788065309 17.78° C 87% 1015 hPa 0 mm - - -
1788064424 17.78° C 86% 1014.9 hPa 0 mm - - -
1788063514 17.78° C 86% 1014.8 hPa 0 mm - - -
1788062613 17.78° C 86% 1014.7 hPa 0 mm - - -
1788061705 18.33° C 86% 1014.7 hPa 0 mm - - -
1788060820 18.33° C 86% 1014.7 hPa 0 mm - - -

* Rain latest hour (hover to see other rain measurements)
** Current wind speed in m/s (hover to see current wind gust speed)